Location: Andrest
(43.3200°N, 0.0641°E)
Time: 15:21:45
(UTC+00:00)

H-2A R/B - Pass Details

Date: 01 December 2020
Orbit: 733 x 836 km, 98.2° (Epoch: 23 January)

Event Time Altitude Azimuth Distance (km) Brightness Sun altitude
Rises 19:07:22 0° 173° (S) 3,322 5.3 -28.9°
Enters shadow 19:08:47 - 174° (S) 2,759 4.9 -29.1°
Exits shadow 19:16:03 53° 313° (NW) 970 2.6 -30.4°
Drops below altitude 10° 19:20:06 10° 341° (NNW) 2,331 4.7 -31.2°
Sets 19:22:25 0° 345° (NNW) 3,247 5.4 -31.6°
